[TLELIST] Archives

 

[list_settings.list_name] Current TLEs

March 28th 2009 PST

HST 1 20580U 90037B 09084.91019386 .00000326 00000-0 12306-4 0 3555 2 20580 028.4703 285.6516 0003922 142.8050 217.2803 15.00467226837330 ISS (ZARYA) 1 25544U 98067A 09086.15339359 .00025148 00000-0 19424-3 0 5473 2 25544 051.6422 007.3027 0009885 162.2196 300.9743 15.71702309593040 CXO 1 25867U 99040B 09084.50000000 +.00000413 +00000-0 +10000-3 0 03071 2 25867 065.0756 072.0431 7367192 276.4312 355.8907 00.37808666004696 ____________________________________________________________________ These 2-Line ...Continue Reading

[list_settings.list_name] Current TLEs

March 27th 2009 PST

HST 1 20580U 90037B 09084.91019386 .00000326 00000-0 12306-4 0 3555 2 20580 028.4703 285.6516 0003922 142.8050 217.2803 15.00467226837330 ISS (ZARYA) 1 25544U 98067A 09084.43751301 .00009617 00000-0 77722-4 0 5364 2 25544 051.6415 016.0837 0009516 153.8379 314.3863 15.71580220592775 CXO 1 25867U 99040B 09084.50000000 +.00000413 +00000-0 +10000-3 0 03071 2 25867 065.0756 072.0431 7367192 276.4312 355.8907 00.37808666004696 ____________________________________________________________________ These 2-Line ...Continue Reading

[list_settings.list_name] Current TLEs

March 26th 2009 PST

HST 1 20580U 90037B 09083.71292337 .00000296 00000-0 10041-4 0 3540 2 20580 028.4701 293.4586 0003879 128.6336 231.4598 15.00466514837150 ISS (ZARYA) 1 25544U 98067A 09082.83716630 -.00008957 +00000-0 -63555-4 0 05235 2 25544 051.6430 024.2774 0009386 145.0477 262.9144 15.71531661592528 CXO 1 25867U 99040B 09081.87500000 +.00000294 +00000-0 +10000-3 0 03069 2 25867 065.0603 072.1198 7363153 276.4285 358.5901 00.37806857004683 ____________________________________________________________________ These 2-Line ...Continue Reading

[list_settings.list_name] Current TLEs

March 25th 2009 PST

HST 1 20580U 90037B 09081.91701492 +.00000304 +00000-0 +10672-4 0 03547 2 20580 028.4701 305.1696 0003905 109.6539 250.4472 15.00466090836887 ISS (ZARYA) 1 25544U 98067A 09082.57215278 .00177566 00000-0 13224-2 0 5213 2 25544 051.6414 025.6276 0009450 148.8471 198.8268 15.71651309592479 CXO 1 25867U 99040B 09081.87500000 +.00000294 +00000-0 +10000-3 0 03069 2 25867 065.0603 072.1198 7363153 276.4285 358.5901 00.37806857004683 ____________________________________________________________________ These 2-Line ...Continue Reading

[list_settings.list_name] Current TLEs

March 24th 2009 PST

HST 1 20580U 90037B 09081.85049969 .00000301 00000-0 10387-4 0 3533 2 20580 028.4701 305.6035 0003896 108.9717 251.1289 15.00466043836879 ISS (ZARYA) 1 25544U 98067A 09081.39199307 -.00027443 00000-0 -20680-3 0 5132 2 25544 051.6403 031.6677 0009147 146.3952 000.3348 15.71322796592290 CXO 1 25867U 99040B 09081.87500000 +.00000294 +00000-0 +10000-3 0 03069 2 25867 065.0603 072.1198 7363153 276.4285 358.5901 00.37806857004683 ____________________________________________________________________ These 2-Line ...Continue Reading

[list_settings.list_name] Current TLEs

March 23rd 2009 PST

HST 1 20580U 90037B 09079.78853122 +.00000382 +00000-0 +16699-4 0 03559 2 20580 028.4694 319.0563 0004085 078.9936 281.1108 15.00465493836562 ISS (ZARYA) 1 25544U 98067A 09080.66512731 .00032877 00000-0 25427-3 0 5084 2 25544 051.6407 035.3843 0009144 143.0560 209.1519 15.71522720592171 CXO 1 25867U 99040B 09079.20833333 +.00000141 +00000-0 +10000-3 0 03051 2 25867 065.0466 072.1958 7358976 276.4295 355.5861 00.37806953004670 ____________________________________________________________________ These 2-Line ...Continue Reading

[list_settings.list_name] Current TLEs

March 22nd 2009 PST

HST 1 20580U 90037B 09078.85731687 +.00000361 +00000-0 +15041-4 0 03521 2 20580 028.4691 325.1318 0003776 065.8611 294.2362 15.00464850836424 ISS (ZARYA) 1 25544U 98067A 09079.47575082 -.00004738 00000-0 -31451-4 0 4990 2 25544 051.6404 041.4657 0009888 143.2799 315.6446 15.71464828591995 CXO 1 25867U 99040B 09079.20833333 +.00000141 +00000-0 +10000-3 0 03051 2 25867 065.0466 072.1958 7358976 276.4295 355.5861 00.37806953004670 ____________________________________________________________________ These 2-Line ...Continue Reading

[list_settings.list_name] Current TLEs

March 21st 2009 PST

HST 1 20580U 90037B 09078.79080150 .00000375 00000-0 16192-4 0 3518 2 20580 028.4693 325.5652 0003794 065.3324 294.7653 15.00464984836412 ISS (ZARYA) 1 25544U 98067A 09077.82043242 -.00000485 +00000-0 +10370-5 0 04885 2 25544 051.6415 049.9373 0009630 134.8683 313.1253 15.71465406591732 CXO 1 25867U 99040B 09079.20833333 +.00000141 +00000-0 +10000-3 0 03051 2 25867 065.0466 072.1958 7358976 276.4295 355.5861 00.37806953004670 ____________________________________________________________________ These 2-Line ...Continue Reading

[list_settings.list_name] Current TLEs

March 20th 2009 PST

HST 1 20580U 90037B 09076.86185824 +.00000343 +00000-0 +13695-4 0 03507 2 20580 028.4707 338.1483 0003486 052.5675 307.5229 15.00464234836123 ISS (ZARYA) 1 25544U 98067A 09078.21950231 -.00004401 00000-0 -28883-4 0 4918 2 25544 051.6425 047.8919 0009888 138.4705 048.6849 15.71458684591793 CXO 1 25867U 99040B 09076.58333333 +.00000022 +00000-0 +10000-3 0 03041 2 25867 065.0368 072.2750 7353801 276.4357 358.2401 00.37806930004667 ____________________________________________________________________ These 2-Line ...Continue Reading

[list_settings.list_name] Current TLEs

March 19th 2009 PST

HST 1 20580U 90037B 09077.12791920 .00000355 00000-0 14605-4 0 3502 2 20580 028.4707 336.4133 0003473 054.4100 305.6813 15.00464427836162 ISS (ZARYA) 1 25544U 98067A 09077.18962941 .00010233 00000-0 82572-4 0 4827 2 25544 051.6402 053.1564 0009450 135.0134 342.0242 15.71529672591635 CXO 1 25867U 99040B 09076.58333333 +.00000022 +00000-0 +10000-3 0 03041 2 25867 065.0368 072.2750 7353801 276.4357 358.2401 00.37806930004667 ____________________________________________________________________ These 2-Line ...Continue Reading
  • This mailing list is a public mailing list - anyone may join or leave, at any time.
  • This mailing list is announce-only.

International Space Station (ISS) / Hubble Space Telescope (HST) / Chandra X-Ray Observatory Orbital Data via EMAIL

Privacy Policy:

Private list